Theta_e
341 343 342 343 345 344 344 346 348 348 347 348 348 346 346 344 350 346 345 344 346 347 344 342 344 346 344 341 343 346 345 345 345 345 347 348 347 348 345 349 348 345 344
343 342 347 344 344 344 348 346 348 347 347 347 347 345 345 347 347 345 346 345 346 347 346 345 345 345 347 345 345 345 347 346 342 341 345 349 348 347 348 348 347 347 345
345 345 349 345 344 345 344 344 345 347 348 348 346 347 348 348 345 345 347 348 343 346 346 346 346 345 345 347 346 343 344 344 345 342 346 348 347 347 346 344 343 338 340
344 345 347 346 345 345 347 349 344 344 344 347 347 346 345 346 348 346 347 348 345 346 346 346 345 346 347 346 347 346 344 346 347 345 341 340 340 342 339 337 337 340 340
345 344 348 348 348 345 344 348 348 349 349 346 347 347 348 345 346 345 345 345 346 347 346 345 348 347 348 347 347 345 344 342 339 338 339 338 340 344 345 343 342 341 342
340 344 344 346 348 346 347 346 347 346 347 347 347 345 345 346 345 344 346 347 346 345 342 343 345 343 342 344 345 345 345 344 340 338 339 341 343 345 343 343 343 342 343
340 342 339 342 345 346 348 348 345 350 348 345 346 347 346 345 344 345 346 347 346 345 344 345 345 340 342 345 343 343 339 340 342 340 340 342 341 342 342 343 343 343 345
338 337 336 343 342 345 345 346 346 346 345 344 345 345 345 345 344 343 340 346 347 346 343 339 339 340 341 342 341 341 343 342 342 342 342 342 342 342 342 344 345 345 345
342 339 345 344 343 342 343 344 344 345 345 345 344 343 344 343 344 342 341 342 344 344 342 341 340 341 341 341 341 340 341 340 338 336 338 339 341 341 342 344 345 343 339
341 341 340 340 340 341 343 344 344 343 344 345 345 343 341 341 344 344 343 342 342 342 342 343 342 341 340 338 335 334 332 331 336 339 340 339 338 337 338 335 332 332 331
337 337 337 337 338 338 339 340 341 341 342 344 343 343 344 345 342 342 341 341 341 342 341 337 333 328 326 325 323 320 320 324 333 334 334 334 333 332 331 329 328 327 327
334 334 334 334 335 335 335 336 337 338 338 336 341 341 339 340 341 340 341 342 341 340 337 335 325 321 320 319 318 318 317 318 318 319 324 329 327 325 324 324 324 325 325
333 333 333 333 333 333 332 334 335 335 335 335 335 333 332 333 333 334 333 335 336 333 333 325 317 317 318 319 320 319 319 319 319 321 322 322 323 324 323 321 318 320 321
332 331 331 331 331 332 333 333 332 332 332 330 329 330 330 331 333 333 333 331 328 324 318 316 318 320 320 321 322 322 321 321 321 321 321 321 321 320 316 312 309 308 308
324 322 323 324 324 326 327 328 329 329 330 329 328 327 322 316 315 314 318 313 326 329 315 316 317 321 321 320 320 320 319 317 317 316 314 311 308 307 306 306 305 305 306
317 314 313 312 311 313 316 321 325 325 326 324 325 323 322 318 309 304 303 305 311 316 320 321 321 320 320 319 319 317 316 314 312 310 308 307 305 304 303 303 304 304 304
309 310 309 309 309 309 306 305 309 313 316 315 313 313 312 307 303 304 306 311 314 316 317 318 318 317 316 314 311 309 306 304 303 303 303 302 302 302 302 302 302 302 302
308 310 312 312 312 311 311 309 307 305 303 303 303 303 302 302 304 306 307 309 310 311 311 310 310 307 305 304 303 302 302 302 301 301 301 301 301 301 300 300 300 300 299
310 311 312 311 312 312 312 311 310 311 308 306 302 302 302 302 305 308 307 307 307 307 306 305 304 303 302 301 301 301 301 301 300 300 300 300 300 300 299 299 299 298 298
314 312 312 311 310 311 311 311 311 311 310 310 309 303 303 303 303 303 306 307 307 306 303 302 301 301 300 300 300 300 300 300 300 300 299 299 298 298 298 298 298 297 297
310 309 310 311 311 311 310 309 310 311 310 309 310 308 308 305 306 306 306 305 304 303 302 301 300 300 299 299 299 298 299 299 299 298 298 298 297 297 297 297 297 296 296
309 306 308 308 309 309 308 308 308 309 309 309 309 308 308 307 306 305 306 306 305 304 303 302 301 300 299 299 298 297 297 297 297 297 297 297 297 297 296 296 296 296 296
309 309 310 310 309 307 307 307 307 307 308 308 308 309 308 307 306 305 306 306 305 305 305 304 304 302 303 301 300 300 297 296 296 295 297 297 297 296 296 296 296 296 295
309 309 311 310 310 306 308 308 309 308 309 308 308 308 308 307 307 305 306 306 306 306 305 305 305 305 304 303 302 302 299 297 296 295 294 296 296 296 296 296 296 296 296
316 311 312 311 310 310 309 308 308 308 308 308 308 308 308 306 305 306 306 306 306 306 306 306 305 305 305 303 303 302 301 300 299 297 295 294 295 295 295 295 296 297 295
316 313 313 311 311 310 308 310 309 309 309 309 308 308 307 307 307 306 306 306 307 306 306 306 306 305 304 303 303 302 302 300 299 298 296 294 294 294 294 294 297 296 296
Wind_Speed
21 21 21 19 20 20 19 16 20 17 16 11 14 14 14 14 12 8 6 10 5 5 3 7 7 6 7 8 5 4 4 3 4 9 9 7 8 6 4 3 5 7 7
19 21 20 18 19 20 17 17 17 18 14 12 12 12 13 14 12 10 8 5 11 4 2 2 2 1 2 4 4 6 5 3 3 4 4 8 8 7 7 5 4 7 8
21 20 19 17 18 19 15 12 17 20 16 15 15 15 16 16 16 16 10 8 11 8 4 5 3 3 3 4 3 4 3 5 6 8 4 4 4 4 6 8 9 8 8
20 22 23 17 17 19 17 14 15 17 20 19 19 17 16 19 18 17 14 13 11 10 8 6 7 4 5 4 2 2 2 4 7 8 7 7 7 8 9 9 7 10 9
28 26 27 23 22 19 17 16 15 17 17 16 18 21 18 19 20 20 16 14 13 14 14 11 8 8 7 9 6 5 5 6 6 7 6 8 8 9 8 12 13 12 8
35 28 28 27 26 26 23 19 20 19 18 17 16 19 18 20 20 17 15 14 14 16 12 15 12 10 10 8 8 6 6 6 6 5 7 8 6 8 10 10 12 13 13
27 23 19 23 21 27 27 25 23 23 22 18 16 17 19 19 19 17 14 13 11 11 12 12 14 11 11 5 5 6 7 9 10 10 9 9 9 10 10 8 7 7 9
26 25 30 26 20 20 24 24 26 24 22 23 20 20 21 20 18 17 14 12 14 13 11 11 12 10 7 8 9 9 11 11 12 12 11 9 8 6 6 5 6 7 5
23 34 30 22 25 26 27 29 28 24 24 23 23 21 22 21 20 20 16 14 14 15 14 11 9 9 10 11 10 9 8 5 4 4 3 3 4 5 5 4 3 4 6
9 8 8 9 8 9 6 7 9 13 17 21 28 27 25 24 19 13 13 14 15 13 11 9 7 7 7 7 7 8 8 9 10 10 10 8 6 4 3 0 3 7 9
9 8 6 7 7 6 6 4 3 8 13 14 13 14 15 15 12 8 11 16 15 14 11 10 8 8 7 8 8 8 8 9 10 8 6 4 3 2 2 3 4 6 6
8 6 6 6 5 5 4 4 3 5 9 15 15 14 14 15 14 15 17 21 18 15 13 9 8 8 8 7 6 5 4 4 5 7 8 7 5 4 4 6 6 5 7
9 10 9 9 7 9 9 10 9 7 4 4 6 8 9 11 16 19 18 17 15 13 11 10 11 10 9 9 7 5 4 4 5 5 3 3 5 7 9 10 9 7 8
9 10 9 7 9 9 9 9 8 8 6 5 5 5 5 6 9 12 11 11 12 12 13 13 15 13 10 8 6 3 1 1 1 1 3 6 9 12 15 15 15 14 14
10 10 10 10 10 9 8 8 8 8 6 4 5 4 7 6 4 2 3 1 7 13 7 8 14 17 13 9 6 3 3 3 5 5 6 7 10 12 14 16 18 19 20
8 9 9 7 6 7 8 7 10 9 6 4 4 4 3 1 0 3 6 8 12 14 18 19 18 15 11 7 6 4 4 6 8 11 13 14 15 16 18 18 19 19 20
6 8 8 7 10 14 10 7 4 5 4 5 5 6 5 4 3 6 8 11 11 10 11 11 9 8 6 5 6 6 7 8 9 10 11 11 12 13 15 17 19 20 21
9 8 8 9 10 10 8 9 9 7 7 2 4 5 6 7 6 7 8 8 7 7 6 6 5 4 3 4 5 5 7 9 10 12 13 15 16 17 18 20 22 23 24
10 8 8 7 7 6 8 7 5 4 6 6 5 2 5 8 8 8 6 5 3 2 1 2 2 2 3 4 6 6 7 9 11 12 13 14 15 17 18 18 19 19 20
11 11 8 5 7 4 5 4 2 4 4 4 8 10 6 6 8 9 7 7 6 5 4 3 3 2 1 3 4 6 7 8 9 11 13 15 16 17 18 18 19 20 21
12 13 11 7 10 11 11 7 5 12 10 4 5 2 3 4 6 4 2 3 4 3 3 3 2 3 3 4 6 8 8 9 11 12 14 15 16 18 19 20 21 21 21
17 17 16 13 12 11 11 10 6 8 9 11 11 7 5 6 9 8 6 6 4 5 5 5 5 5 7 9 9 10 11 11 11 13 14 14 16 17 19 20 21 21 20
15 16 15 9 11 13 10 13 13 13 14 11 11 14 11 9 10 12 10 8 7 7 7 6 8 8 12 10 11 13 12 12 14 15 15 15 16 18 20 21 21 21 20
19 19 16 12 8 14 16 12 13 15 13 16 13 15 15 14 12 15 14 11 10 10 8 7 8 11 13 15 13 21 15 15 17 17 16 16 17 19 20 22 22 19 15
19 22 19 15 16 12 16 16 13 14 16 15 13 13 17 15 17 18 15 13 12 13 11 10 11 12 14 15 16 20 22 17 18 19 18 17 18 18 19 21 20 13 15
21 23 23 20 18 20 19 17 19 15 14 14 18 15 13 14 16 18 18 15 15 15 14 13 14 13 15 13 15 17 20 17 17 19 19 19 18 17 18 19 16 14 13
Wind_Direction
217 213 212 214 215 215 216 220 218 219 223 225 227 227 219 202 203 225 263 230 224 220 263 251 238 263 276 279 277 276 286 326 12 30 34 15 5 354 116 94 49 43 37
221 219 217 216 220 220 219 217 220 222 225 216 203 213 197 208 218 226 219 234 218 207 177 103 167 242 282 344 294 290 275 282 280 344 63 59 61 71 67 82 67 20 27
213 216 217 229 222 220 220 219 221 223 227 221 218 218 218 217 221 226 218 238 213 197 211 240 203 229 261 304 282 330 297 271 282 275 293 302 313 314 330 330 321 333 359
230 219 217 216 225 222 218 222 231 226 229 229 227 222 223 224 227 220 211 216 207 210 218 229 223 214 262 293 273 309 256 253 257 272 281 296 292 298 316 327 330 347 349
220 218 223 217 231 234 231 230 232 228 230 233 233 230 230 228 226 222 226 222 221 219 209 226 219 207 231 233 255 269 274 262 259 270 287 308 320 339 355 346 341 345 350
212 223 228 220 225 236 236 239 245 246 243 241 239 226 229 227 223 226 231 225 210 210 210 217 227 241 241 249 248 250 255 262 293 302 311 318 332 330 319 324 332 347 5
217 219 227 228 239 235 229 232 235 240 245 238 233 221 221 229 224 220 215 221 214 210 207 214 231 243 228 236 252 256 263 270 282 290 295 300 301 307 310 314 324 351 4
215 205 214 231 243 255 249 250 243 235 234 239 233 230 226 227 223 219 225 218 222 231 235 228 225 228 238 240 248 254 263 272 281 285 286 284 287 289 303 318 339 354 27
172 204 228 227 241 251 253 250 250 241 242 239 234 232 236 234 232 235 231 225 224 228 234 238 241 239 243 246 248 248 247 252 277 302 297 247 239 253 254 276 289 308 337
160 185 195 204 215 226 219 220 248 260 248 236 226 218 227 238 239 231 223 217 218 225 220 220 211 206 199 197 196 185 183 155 134 141 141 142 146 144 143 71 333 333 348
159 162 172 188 201 217 240 260 279 271 250 236 183 208 212 228 247 248 216 202 213 197 173 156 147 147 162 175 182 181 173 166 176 194 195 203 225 244 306 349 2 358 353
139 152 159 161 173 180 201 199 175 122 174 163 176 180 183 181 200 213 210 197 177 174 162 155 150 154 176 191 189 196 184 192 211 229 239 245 269 288 302 309 321 336 330
157 155 149 146 148 144 145 140 130 139 128 153 161 163 178 181 172 164 158 160 160 161 160 160 154 166 180 190 189 199 208 225 233 250 257 283 317 326 320 299 294 292 282
184 176 160 150 158 173 169 158 150 145 146 155 135 148 146 167 187 192 198 202 182 163 159 163 160 180 195 195 190 209 255 267 280 320 307 307 306 300 303 311 313 313 308
166 160 159 158 157 162 162 170 177 180 182 146 149 150 132 111 97 132 162 239 239 212 170 186 186 191 185 198 218 246 292 306 298 312 315 320 319 317 316 314 313 316 319
155 142 134 139 150 156 156 172 163 160 161 153 158 157 181 270 76 173 160 160 170 166 161 169 171 177 195 216 246 277 296 304 312 313 315 317 319 319 317 318 317 318 320
157 152 148 131 106 93 109 124 163 159 169 186 207 217 229 242 210 145 162 159 162 170 185 181 187 197 221 251 269 285 304 320 325 321 322 326 330 330 326 327 325 324 323
158 144 136 132 125 127 112 93 103 106 99 116 143 166 168 164 171 187 189 178 177 180 184 180 204 221 256 283 295 309 320 329 337 339 339 338 335 333 332 332 332 332 330
178 189 189 176 154 167 162 141 146 131 91 83 62 87 183 180 173 182 206 227 232 224 213 225 236 259 292 310 324 336 342 342 345 344 343 340 339 340 339 338 337 336 332
203 197 202 222 202 182 170 168 237 215 227 221 205 185 191 188 192 198 221 253 263 278 273 258 266 290 331 346 347 351 354 348 348 349 352 349 348 349 346 345 346 345 343
212 215 215 220 216 226 235 229 225 203 192 195 203 208 345 266 237 237 205 265 264 260 277 286 309 329 347 348 354 353 353 354 358 357 354 351 352 353 351 350 349 346 346
216 212 220 233 241 241 240 204 228 206 213 269 213 240 253 260 248 260 269 301 314 314 324 345 4 1 359 352 351 349 344 344 351 354 352 352 352 352 349 345 343 341 343
225 220 221 222 241 225 221 223 225 235 250 253 249 248 245 253 262 250 252 281 306 325 339 3 9 28 21 7 5 352 339 338 340 339 341 344 346 346 345 343 341 340 345
233 229 226 224 256 236 231 243 234 250 245 237 249 242 241 236 249 242 242 261 287 306 319 340 355 1 0 2 357 3 350 348 348 342 335 334 336 340 341 339 336 333 349
233 230 238 244 230 232 242 247 247 256 257 254 250 246 232 231 220 229 238 253 279 296 304 309 316 338 343 343 352 352 350 334 338 343 340 331 326 326 331 334 329 334 355
232 230 231 231 238 241 237 249 242 240 256 254 258 253 246 247 244 236 239 253 275 284 285 282 288 307 329 333 339 336 342 335 334 338 340 337 326 318 318 328 325 335 351